Time,TemperatureF,DewpointF,PressureIn,WindDirection,WindDirectionDegrees,WindSpeedMPH,WindSpeedGustMPH,Humidity,HourlyPrecipIn,Conditions,Clouds,dailyrainin,SolarRadiationWatts/m^2,SoftwareType,DateUTC
2013-12-28 00:02:00,76.0,69.7,30.16,NE,53,5.0,9.0,81,0.00,,,0.00,0,Wunderground v.1.15,2013-12-28 05:02:00,
2013-12-28 00:04:00,75.9,69.6,30.16,East,97,6.0,9.0,81,0.00,,,0.00,0,Wunderground v.1.15,2013-12-28 05:04:00,
2013-12-28 00:06:00,75.9,69.6,30.16,ESE,103,6.0,9.0,81,0.00,,,0.00,0,Wunderground v.1.15,2013-12-28 05:06:00,
2013-12-28 00:12:00,75.9,69.3,30.15,ESE,117,7.0,10.0,80,0.00,,,0.00,0,Wunderground v.1.15,2013-12-28 05:12:00,
2013-12-28 00:18:00,75.9,69.3,30.15,ENE,61,7.0,10.0,80,0.00,,,0.00,0,Wunderground v.1.15,2013-12-28 05:18:00,
2013-12-28 00:24:00,75.9,69.3,30.15,NE,54,5.0,6.0,80,0.00,,,0.00,0,Wunderground v.1.15,2013-12-28 05:24:00,
2013-12-28 00:26:00,75.9,69.3,30.15,NE,51,5.0,6.0,80,0.00,,,0.00,0,Wunderground v.1.15,2013-12-28 05:26:00,
2013-12-28 00:32:00,75.9,69.3,30.15,East,87,5.0,7.0,80,0.00,,,0.00,0,Wunderground v.1.15,2013-12-28 05:32:00,
2013-12-28 00:38:00,75.9,69.6,30.15,East,101,5.0,7.0,81,0.00,,,0.00,0,Wunderground v.1.15,2013-12-28 05:38:00,
2013-12-28 00:44:00,75.9,69.6,30.15,ENE,62,4.0,8.0,81,0.00,,,0.00,0,Wunderground v.1.15,2013-12-28 05:44:00,
2013-12-28 00:50:00,75.9,69.3,30.15,East,79,5.0,8.0,80,0.00,,,0.00,0,Wunderground v.1.15,2013-12-28 05:50:00,
2013-12-28 00:56:00,76.0,69.4,30.15,NE,45,5.0,11.0,80,0.00,,,0.00,0,Wunderground v.1.15,2013-12-28 05:56:00,
2013-12-28 01:02:00,76.0,69.4,30.15,ENE,68,5.0,6.0,80,0.00,,,0.00,0,Wunderground v.1.15,2013-12-28 06:02:00,
2013-12-28 01:08:00,76.0,69.0,30.15,ENE,72,5.0,10.0,79,0.00,,,0.00,0,Wunderground v.1.15,2013-12-28 06:08:00,
2013-12-28 01:12:00,76.0,69.4,30.14,NE,46,4.0,7.0,80,0.00,,,0.00,0,Wunderground v.1.15,2013-12-28 06:12:00,
2013-12-28 01:18:00,75.9,69.3,30.15,East,86,4.0,7.0,80,0.00,,,0.00,0,Wunderground v.1.15,2013-12-28 06:18:00,
2013-12-28 01:24:00,75.9,69.3,30.15,ENE,76,4.0,11.0,80,0.00,,,0.00,0,Wunderground v.1.15,2013-12-28 06:24:00,
2013-12-28 01:30:00,75.9,69.3,30.15,ENE,65,6.0,8.0,80,0.00,,,0.00,0,Wunderground v.1.15,2013-12-28 06:30:00,
2013-12-28 01:36:00,75.9,69.3,30.15,East,99,4.0,8.0,80,0.00,,,0.00,0,Wunderground v.1.15,2013-12-28 06:36:00,
2013-12-28 01:42:00,75.8,69.2,30.15,ENE,67,3.0,8.0,80,0.00,,,0.00,0,Wunderground v.1.15,2013-12-28 06:42:00,
2013-12-28 01:48:00,75.9,69.3,30.14,NE,53,5.0,8.0,80,0.00,,,0.00,0,Wunderground v.1.15,2013-12-28 06:48:00,
2013-12-28 01:54:00,76.0,69.7,30.14,East,92,5.0,5.0,81,0.00,,,0.00,0,Wunderground v.1.15,2013-12-28 06:54:00,
2013-12-28 02:00:00,75.9,69.6,30.14,ENE,62,4.0,4.0,81,0.00,,,0.00,0,Wunderground v.1.15,2013-12-28 07:00:00,
2013-12-28 02:06:00,76.0,70.1,30.14,NE,34,4.0,7.0,82,0.00,,,0.00,0,Wunderground v.1.15,2013-12-28 07:06:00,
2013-12-28 02:12:00,76.0,70.1,30.14,East,96,5.0,8.0,82,0.00,,,0.00,0,Wunderground v.1.15,2013-12-28 07:12:00,
2013-12-28 02:18:00,75.9,70.0,30.13,ENE,68,4.0,8.0,82,0.00,,,0.00,0,Wunderground v.1.15,2013-12-28 07:18:00,
2013-12-28 02:24:00,76.0,70.1,30.13,ENE,57,4.0,8.0,82,0.00,,,0.00,0,Wunderground v.1.15,2013-12-28 07:24:00,
2013-12-28 02:30:00,75.9,70.0,30.13,ENE,69,3.0,3.0,82,0.00,,,0.00,0,Wunderground v.1.15,2013-12-28 07:30:00,
2013-12-28 02:36:00,75.9,70.0,30.13,ENE,61,3.0,10.0,82,0.00,,,0.00,0,Wunderground v.1.15,2013-12-28 07:36:00,
2013-12-28 02:42:00,76.0,70.5,30.13,NE,53,3.0,3.0,83,0.00,,,0.00,0,Wunderground v.1.15,2013-12-28 07:42:00,
2013-12-28 02:48:00,75.9,70.4,30.12,NE,50,3.0,4.0,83,0.00,,,0.00,0,Wunderground v.1.15,2013-12-28 07:48:00,
2013-12-28 02:54:00,75.9,70.4,30.12,NE,50,3.0,9.0,83,0.00,,,0.00,0,Wunderground v.1.15,2013-12-28 07:54:00,
2013-12-28 03:00:00,75.9,70.4,30.12,NE,53,3.0,7.0,83,0.00,,,0.00,0,Wunderground v.1.15,2013-12-28 08:00:00,
2013-12-28 03:06:00,75.9,70.4,30.12,ENE,59,5.0,13.0,83,0.00,,,0.00,0,Wunderground v.1.15,2013-12-28 08:06:00,
2013-12-28 03:12:00,75.9,70.4,30.11,ENE,71,5.0,6.0,83,0.00,,,0.00,0,Wunderground v.1.15,2013-12-28 08:12:00,
2013-12-28 03:18:00,75.9,70.4,30.11,NE,53,5.0,10.0,83,0.00,,,0.00,0,Wunderground v.1.15,2013-12-28 08:18:00,
2013-12-28 03:24:00,75.9,70.4,30.11,ESE,102,5.0,8.0,83,0.00,,,0.00,0,Wunderground v.1.15,2013-12-28 08:24:00,
2013-12-28 03:30:00,75.9,70.4,30.11,ENE,59,4.0,5.0,83,0.00,,,0.00,0,Wunderground v.1.15,2013-12-28 08:30:00,
2013-12-28 03:36:00,76.0,70.5,30.11,East,89,5.0,11.0,83,0.00,,,0.00,0,Wunderground v.1.15,2013-12-28 08:36:00,
2013-12-28 03:42:00,76.0,70.5,30.11,East,90,6.0,6.0,83,0.00,,,0.00,0,Wunderground v.1.15,2013-12-28 08:42:00,
2013-12-28 03:48:00,76.0,70.5,30.11,East,83,5.0,7.0,83,0.00,,,0.00,0,Wunderground v.1.15,2013-12-28 08:48:00,
2013-12-28 03:54:00,76.0,70.5,30.11,ENE,76,6.0,10.0,83,0.00,,,0.00,0,Wunderground v.1.15,2013-12-28 08:54:00,
2013-12-28 04:02:00,76.1,70.6,30.11,East,80,6.0,6.0,83,0.00,,,0.00,0,Wunderground v.1.15,2013-12-28 09:02:00,
2013-12-28 04:08:00,76.0,70.8,30.11,NE,48,4.0,10.0,84,0.00,,,0.00,0,Wunderground v.1.15,2013-12-28 09:08:00,
2013-12-28 04:14:00,76.0,70.8,30.10,East,88,5.0,10.0,84,0.00,,,0.00,0,Wunderground v.1.15,2013-12-28 09:14:00,
2013-12-28 04:20:00,76.0,70.5,30.10,East,80,6.0,6.0,83,0.00,,,0.00,0,Wunderground v.1.15,2013-12-28 09:20:00,
2013-12-28 04:26:00,76.0,70.5,30.11,ENE,60,6.0,11.0,83,0.00,,,0.00,0,Wunderground v.1.15,2013-12-28 09:26:00,
2013-12-28 04:32:00,76.0,70.5,30.11,ESE,111,6.0,6.0,83,0.00,,,0.00,0,Wunderground v.1.15,2013-12-28 09:32:00,
2013-12-28 04:38:00,76.0,70.5,30.10,ENE,61,4.0,7.0,83,0.00,,,0.00,0,Wunderground v.1.15,2013-12-28 09:38:00,
2013-12-28 04:44:00,76.0,70.5,30.10,NE,44,4.0,11.0,83,0.00,,,0.00,0,Wunderground v.1.15,2013-12-28 09:44:00,
2013-12-28 04:50:00,76.1,70.2,30.10,ESE,103,5.0,5.0,82,0.00,,,0.00,0,Wunderground v.1.15,2013-12-28 09:50:00,
2013-12-28 04:56:00,76.2,69.9,30.11,East,80,6.0,7.0,81,0.00,,,0.00,0,Wunderground v.1.15,2013-12-28 09:56:00,
2013-12-28 05:02:00,76.1,69.8,30.11,East,88,5.0,8.0,81,0.00,,,0.00,0,Wunderground v.1.15,2013-12-28 10:02:00,
2013-12-28 05:08:00,76.1,69.5,30.11,East,90,6.0,10.0,80,0.00,,,0.00,0,Wunderground v.1.15,2013-12-28 10:08:00,
2013-12-28 05:14:00,76.1,69.5,30.11,ENE,67,6.0,7.0,80,0.00,,,0.00,0,Wunderground v.1.15,2013-12-28 10:14:00,
2013-12-28 05:20:00,76.1,69.5,30.11,ESE,115,4.0,4.0,80,0.00,,,0.00,0,Wunderground v.1.15,2013-12-28 10:20:00,
2013-12-28 05:26:00,76.1,69.8,30.11,ENE,65,5.0,9.0,81,0.00,,,0.00,0,Wunderground v.1.15,2013-12-28 10:26:00,
2013-12-28 05:32:00,76.1,69.5,30.12,ENE,78,6.0,11.0,80,0.00,,,0.00,0,Wunderground v.1.15,2013-12-28 10:32:00,
2013-12-28 05:38:00,76.1,69.8,30.11,NE,45,5.0,12.0,81,0.00,,,0.00,0,Wunderground v.1.15,2013-12-28 10:38:00,
2013-12-28 05:44:00,76.1,69.8,30.11,East,91,5.0,13.0,81,0.00,,,0.00,0,Wunderground v.1.15,2013-12-28 10:44:00,
2013-12-28 05:50:00,76.0,69.7,30.11,East,80,6.0,6.0,81,0.00,,,0.00,0,Wunderground v.1.15,2013-12-28 10:50:00,
2013-12-28 05:56:00,76.0,69.7,30.12,NE,49,6.0,11.0,81,0.00,,,0.00,0,Wunderground v.1.15,2013-12-28 10:56:00,
2013-12-28 06:02:00,76.1,69.8,30.12,ESE,102,6.0,6.0,81,0.00,,,0.00,0,Wunderground v.1.15,2013-12-28 11:02:00,
2013-12-28 06:06:00,76.1,69.8,30.12,East,83,6.0,6.0,81,0.00,,,0.00,0,Wunderground v.1.15,2013-12-28 11:06:00,
2013-12-28 06:12:00,76.2,69.9,30.12,East,87,5.0,15.0,81,0.00,,,0.00,0,Wunderground v.1.15,2013-12-28 11:12:00,
2013-12-28 06:18:00,76.3,70.0,30.12,SE,130,8.0,15.0,81,0.00,,,0.00,0,Wunderground v.1.15,2013-12-28 11:18:00,
2013-12-28 06:24:00,76.4,70.5,30.13,East,90,7.0,8.0,82,0.00,,,0.00,0,Wunderground v.1.15,2013-12-28 11:24:00,
2013-12-28 06:30:00,76.3,70.0,30.13,ESE,105,6.0,8.0,81,0.00,,,0.00,0,Wunderground v.1.15,2013-12-28 11:30:00,
2013-12-28 06:36:00,76.4,70.1,30.13,ENE,75,6.0,10.0,81,0.00,,,0.00,0,Wunderground v.1.15,2013-12-28 11:36:00,
2013-12-28 06:42:00,76.5,70.6,30.14,ESE,118,6.0,7.0,82,0.00,,,0.00,0,Wunderground v.1.15,2013-12-28 11:42:00,
2013-12-28 06:48:00,76.5,70.6,30.14,SE,133,6.0,10.0,82,0.00,,,0.00,0,Wunderground v.1.15,2013-12-28 11:48:00,
2013-12-28 06:54:00,76.4,70.5,30.13,East,92,7.0,8.0,82,0.00,,,0.00,0,Wunderground v.1.15,2013-12-28 11:54:00,
2013-12-28 07:00:00,76.4,70.5,30.14,East,91,7.0,8.0,82,0.00,,,0.00,0,Wunderground v.1.15,2013-12-28 12:00:00,
2013-12-28 07:06:00,76.4,70.9,30.14,ESE,109,7.0,8.0,83,0.00,,,0.00,0,Wunderground v.1.15,2013-12-28 12:06:00,
2013-12-28 07:12:00,76.2,70.7,30.14,East,82,6.0,7.0,83,0.00,,,0.00,5,Wunderground v.1.15,2013-12-28 12:12:00,
2013-12-28 07:18:00,76.1,70.2,30.14,East,86,5.0,10.0,82,0.00,,,0.00,11,Wunderground v.1.15,2013-12-28 12:18:00,
2013-12-28 07:24:00,76.1,70.2,30.14,ESE,121,4.0,4.0,82,0.00,,,0.00,14,Wunderground v.1.15,2013-12-28 12:24:00,
2013-12-28 07:30:00,76.2,69.9,30.14,ENE,59,4.0,5.0,81,0.00,,,0.00,18,Wunderground v.1.15,2013-12-28 12:30:00,
2013-12-28 07:36:00,76.4,69.8,30.14,ESE,115,7.0,8.0,80,0.00,,,0.00,25,Wunderground v.1.15,2013-12-28 12:36:00,
2013-12-28 07:42:00,76.5,70.2,30.14,ESE,105,6.0,9.0,81,0.00,,,0.00,28,Wunderground v.1.15,2013-12-28 12:42:00,
2013-12-28 07:48:00,76.6,70.3,30.14,East,101,4.0,9.0,81,0.00,,,0.00,42,Wunderground v.1.15,2013-12-28 12:48:00,
2013-12-28 07:54:00,76.6,70.3,30.15,East,96,5.0,9.0,81,0.00,,,0.00,67,Wunderground v.1.15,2013-12-28 12:54:00,
2013-12-28 08:00:00,76.9,70.6,30.15,ESE,107,6.0,6.0,81,0.00,,,0.00,88,Wunderground v.1.15,2013-12-28 13:00:00,
2013-12-28 08:06:00,77.0,70.7,30.15,East,86,7.0,14.0,81,0.00,,,0.00,90,Wunderground v.1.15,2013-12-28 13:06:00,
2013-12-28 08:12:00,77.0,70.4,30.15,ESE,111,8.0,14.0,80,0.00,,,0.00,77,Wunderground v.1.15,2013-12-28 13:12:00,
2013-12-28 08:18:00,77.1,70.8,30.16,ENE,64,7.0,14.0,81,0.00,,,0.00,84,Wunderground v.1.15,2013-12-28 13:18:00,
2013-12-28 08:24:00,77.1,70.8,30.16,SE,131,7.0,10.0,81,0.00,,,0.00,98,Wunderground v.1.15,2013-12-28 13:24:00,
2013-12-28 08:30:00,77.2,70.9,30.17,ESE,107,6.0,9.0,81,0.00,,,0.00,104,Wunderground v.1.15,2013-12-28 13:30:00,
2013-12-28 08:36:00,77.1,70.5,30.17,ESE,102,7.0,9.0,80,0.00,,,0.00,88,Wunderground v.1.15,2013-12-28 13:36:00,
2013-12-28 08:42:00,77.2,70.9,30.17,ESE,103,6.0,10.0,81,0.00,,,0.00,93,Wunderground v.1.15,2013-12-28 13:42:00,
2013-12-28 08:48:00,77.3,71.0,30.17,East,101,7.0,11.0,81,0.00,,,0.00,102,Wunderground v.1.15,2013-12-28 13:48:00,
2013-12-28 08:54:00,77.3,70.6,30.17,SE,135,6.0,10.0,80,0.00,,,0.00,105,Wunderground v.1.15,2013-12-28 13:54:00,
2013-12-28 09:00:00,77.3,70.6,30.17,East,87,6.0,7.0,80,0.00,,,0.00,113,Wunderground v.1.15,2013-12-28 14:00:00,
2013-12-28 09:06:00,77.4,70.7,30.17,East,83,6.0,11.0,80,0.00,,,0.00,127,Wunderground v.1.15,2013-12-28 14:06:00,
2013-12-28 09:12:00,77.4,70.7,30.17,SE,146,7.0,11.0,80,0.00,,,0.00,149,Wunderground v.1.15,2013-12-28 14:12:00,
2013-12-28 09:18:00,77.6,70.9,30.17,ESE,123,7.0,11.0,80,0.00,,,0.00,209,Wunderground v.1.15,2013-12-28 14:18:00,
2013-12-28 09:24:00,78.0,71.0,30.17,East,98,7.0,11.0,79,0.00,,,0.00,325,Wunderground v.1.15,2013-12-28 14:24:00,
2013-12-28 09:30:00,78.4,71.3,30.17,East,98,6.0,6.0,79,0.00,,,0.00,339,Wunderground v.1.15,2013-12-28 14:30:00,
2013-12-28 09:36:00,78.4,71.0,30.17,East,97,6.0,10.0,78,0.00,,,0.00,176,Wunderground v.1.15,2013-12-28 14:36:00,
2013-12-28 09:42:00,78.2,71.2,30.17,ENE,76,7.0,14.0,79,0.00,,,0.00,165,Wunderground v.1.15,2013-12-28 14:42:00,
2013-12-28 09:48:00,78.2,71.2,30.18,ESE,107,7.0,14.0,79,0.00,,,0.00,195,Wunderground v.1.15,2013-12-28 14:48:00,
2013-12-28 09:54:00,78.3,71.6,30.18,NE,55,8.0,10.0,80,0.00,,,0.00,197,Wunderground v.1.15,2013-12-28 14:54:00,
2013-12-28 10:00:00,78.3,71.6,30.17,SE,124,8.0,8.0,80,0.00,,,0.00,163,Wunderground v.1.15,2013-12-28 15:00:00,
2013-12-28 10:06:00,78.4,71.7,30.17,ESE,122,6.0,8.0,80,0.00,,,0.00,327,Wunderground v.1.15,2013-12-28 15:06:00,
2013-12-28 10:12:00,78.4,71.7,30.17,East,101,7.0,9.0,80,0.00,,,0.00,297,Wunderground v.1.15,2013-12-28 15:12:00,
2013-12-28 10:18:00,78.8,72.1,30.17,ESE,123,7.0,10.0,80,0.00,,,0.00,480,Wunderground v.1.15,2013-12-28 15:18:00,
2013-12-28 10:24:00,79.3,72.2,30.17,ESE,116,7.0,10.0,79,0.00,,,0.00,529,Wunderground v.1.15,2013-12-28 15:24:00,
2013-12-28 10:30:00,79.6,72.1,30.17,ENE,59,6.0,8.0,78,0.00,,,0.00,359,Wunderground v.1.15,2013-12-28 15:30:00,
2013-12-28 10:36:00,79.6,72.1,30.16,ENE,78,7.0,11.0,78,0.00,,,0.00,422,Wunderground v.1.15,2013-12-28 15:36:00,
2013-12-28 10:42:00,79.3,71.8,30.16,SE,134,7.0,8.0,78,0.00,,,0.00,330,Wunderground v.1.15,2013-12-28 15:42:00,
2013-12-28 10:48:00,79.1,71.6,30.16,East,97,8.0,11.0,78,0.00,,,0.00,251,Wunderground v.1.15,2013-12-28 15:48:00,
2013-12-28 10:54:00,78.9,71.8,30.16,SE,126,7.0,10.0,79,0.00,,,0.00,243,Wunderground v.1.15,2013-12-28 15:54:00,
2013-12-28 11:00:00,78.8,71.7,30.16,East,93,8.0,9.0,79,0.00,,,0.00,218,Wunderground v.1.15,2013-12-28 16:00:00,
2013-12-28 11:06:00,78.5,71.4,30.16,ENE,76,8.0,13.0,79,0.00,,,0.00,214,Wunderground v.1.15,2013-12-28 16:06:00,
2013-12-28 11:12:00,78.5,71.8,30.15,ESE,122,7.0,9.0,80,0.00,,,0.00,229,Wunderground v.1.15,2013-12-28 16:12:00,
2013-12-28 11:18:00,78.6,71.9,30.15,ESE,113,5.0,12.0,80,0.00,,,0.00,236,Wunderground v.1.15,2013-12-28 16:18:00,
2013-12-28 11:24:00,78.4,71.7,30.14,East,88,7.0,10.0,80,0.00,,,0.00,271,Wunderground v.1.15,2013-12-28 16:24:00,
2013-12-28 11:30:00,78.5,71.4,30.14,East,80,6.0,15.0,79,0.00,,,0.00,253,Wunderground v.1.15,2013-12-28 16:30:00,
2013-12-28 11:36:00,78.6,71.5,30.14,ESE,115,7.0,15.0,79,0.00,,,0.00,313,Wunderground v.1.15,2013-12-28 16:36:00,
2013-12-28 11:42:00,78.7,71.6,30.13,SE,125,8.0,10.0,79,0.00,,,0.00,446,Wunderground v.1.15,2013-12-28 16:42:00,
2013-12-28 11:48:00,78.7,71.6,30.13,East,91,9.0,11.0,79,0.00,,,0.00,432,Wunderground v.1.15,2013-12-28 16:48:00,
2013-12-28 11:54:00,78.9,71.8,30.13,East,82,8.0,9.0,79,0.00,,,0.00,603,Wunderground v.1.15,2013-12-28 16:54:00,
2013-12-28 12:00:00,79.3,72.2,30.12,SE,136,7.0,7.0,79,0.00,,,0.00,608,Wunderground v.1.15,2013-12-28 17:00:00,
2013-12-28 12:06:00,79.4,72.3,30.12,SSE,150,8.0,12.0,79,0.00,,,0.00,578,Wunderground v.1.15,2013-12-28 17:06:00,
2013-12-28 12:12:00,79.4,71.6,30.12,ESE,114,9.0,11.0,77,0.00,,,0.00,468,Wunderground v.1.15,2013-12-28 17:12:00,
2013-12-28 12:18:00,79.2,71.7,30.12,ESE,118,8.0,11.0,78,0.00,,,0.00,279,Wunderground v.1.15,2013-12-28 17:18:00,
2013-12-28 12:24:00,79.1,72.0,30.11,ESE,108,7.0,8.0,79,0.00,,,0.00,232,Wunderground v.1.15,2013-12-28 17:24:00,
2013-12-28 12:30:00,78.9,71.5,30.11,SE,146,7.0,7.0,78,0.00,,,0.00,540,Wunderground v.1.15,2013-12-28 17:30:00,
2013-12-28 12:36:00,79.1,71.6,30.11,SE,136,8.0,9.0,78,0.00,,,0.00,316,Wunderground v.1.15,2013-12-28 17:36:00,
2013-12-28 12:42:00,79.0,71.6,30.10,East,92,8.0,10.0,78,0.00,,,0.00,258,Wunderground v.1.15,2013-12-28 17:42:00,
2013-12-28 12:48:00,78.9,71.5,30.10,SE,146,6.0,10.0,78,0.00,,,0.00,202,Wunderground v.1.15,2013-12-28 17:48:00,
2013-12-28 12:54:00,78.7,71.3,30.10,East,101,7.0,7.0,78,0.00,,,0.00,336,Wunderground v.1.15,2013-12-28 17:54:00,
2013-12-28 13:00:00,78.7,71.6,30.10,ENE,76,7.0,11.0,79,0.00,,,0.00,429,Wunderground v.1.15,2013-12-28 18:00:00,
2013-12-28 13:06:00,78.7,71.3,30.10,NE,56,7.0,17.0,78,0.00,,,0.00,162,Wunderground v.1.15,2013-12-28 18:06:00,
2013-12-28 13:12:00,78.4,71.3,30.09,East,88,7.0,16.0,79,0.00,,,0.00,155,Wunderground v.1.15,2013-12-28 18:12:00,
2013-12-28 13:18:00,78.1,71.4,30.09,ENE,74,8.0,16.0,80,0.00,,,0.00,186,Wunderground v.1.15,2013-12-28 18:18:00,
2013-12-28 13:24:00,78.1,71.4,30.09,East,87,8.0,9.0,80,0.00,,,0.00,200,Wunderground v.1.15,2013-12-28 18:24:00,
2013-12-28 13:30:00,78.2,71.5,30.09,ESE,112,8.0,8.0,80,0.00,,,0.00,190,Wunderground v.1.15,2013-12-28 18:30:00,
2013-12-28 13:36:00,78.2,71.5,30.08,East,84,8.0,8.0,80,0.00,,,0.00,190,Wunderground v.1.15,2013-12-28 18:36:00,
2013-12-28 13:42:00,78.2,71.5,30.08,ESE,102,7.0,7.0,80,0.00,,,0.00,227,Wunderground v.1.15,2013-12-28 18:42:00,
2013-12-28 13:48:00,78.2,71.5,30.08,East,91,7.0,11.0,80,0.00,,,0.00,171,Wunderground v.1.15,2013-12-28 18:48:00,
2013-12-28 13:54:00,78.1,71.1,30.08,ESE,103,8.0,12.0,79,0.00,,,0.00,134,Wunderground v.1.15,2013-12-28 18:54:00,
2013-12-28 14:00:00,77.9,71.2,30.07,ESE,113,9.0,9.0,80,0.00,,,0.00,174,Wunderground v.1.15,2013-12-28 19:00:00,
2013-12-28 14:06:00,78.0,71.3,30.07,East,92,8.0,11.0,80,0.00,,,0.00,260,Wunderground v.1.15,2013-12-28 19:06:00,
2013-12-28 14:12:00,78.1,71.4,30.07,ENE,72,8.0,11.0,80,0.00,,,0.00,230,Wunderground v.1.15,2013-12-28 19:12:00,
2013-12-28 14:18:00,78.2,71.5,30.06,ESE,119,8.0,11.0,80,0.00,,,0.00,283,Wunderground v.1.15,2013-12-28 19:18:00,
2013-12-28 14:24:00,78.2,71.5,30.06,East,98,8.0,13.0,80,0.00,,,0.00,234,Wunderground v.1.15,2013-12-28 19:24:00,
2013-12-28 14:30:00,78.0,71.3,30.06,ESE,106,10.0,10.0,80,0.00,,,0.00,181,Wunderground v.1.15,2013-12-28 19:30:00,
2013-12-28 14:36:00,78.1,71.8,30.06,SE,126,8.0,10.0,81,0.00,,,0.00,262,Wunderground v.1.15,2013-12-28 19:36:00,
2013-12-28 14:42:00,78.0,71.3,30.06,ESE,104,7.0,8.0,80,0.00,,,0.00,169,Wunderground v.1.15,2013-12-28 19:42:00,
2013-12-28 14:48:00,78.0,71.7,30.06,ESE,109,7.0,10.0,81,0.00,,,0.00,241,Wunderground v.1.15,2013-12-28 19:48:00,
2013-12-28 14:54:00,78.2,71.5,30.06,SE,127,6.0,8.0,80,0.00,,,0.00,250,Wunderground v.1.15,2013-12-28 19:54:00,
2013-12-28 15:00:00,78.4,72.1,30.05,East,91,6.0,9.0,81,0.00,,,0.00,88,Wunderground v.1.15,2013-12-28 20:00:00,
2013-12-28 15:06:00,78.0,71.7,30.06,ENE,76,7.0,11.0,81,0.00,,,0.00,127,Wunderground v.1.15,2013-12-28 20:06:00,
2013-12-28 15:12:00,77.8,71.5,30.06,ESE,121,8.0,8.0,81,0.00,,,0.00,69,Wunderground v.1.15,2013-12-28 20:12:00,
2013-12-28 15:18:00,77.7,71.4,30.05,ESE,107,6.0,14.0,81,0.00,,,0.00,67,Wunderground v.1.15,2013-12-28 20:18:00,
2013-12-28 15:24:00,77.7,71.4,30.05,East,96,7.0,11.0,81,0.00,,,0.00,70,Wunderground v.1.15,2013-12-28 20:24:00,
2013-12-28 15:30:00,77.7,71.4,30.05,ESE,113,8.0,8.0,81,0.00,,,0.00,63,Wunderground v.1.15,2013-12-28 20:30:00,
2013-12-28 15:36:00,77.8,71.5,30.04,ESE,117,7.0,9.0,81,0.00,,,0.00,72,Wunderground v.1.15,2013-12-28 20:36:00,
2013-12-28 15:42:00,77.8,71.5,30.05,ESE,103,7.0,11.0,81,0.00,,,0.00,67,Wunderground v.1.15,2013-12-28 20:42:00,
2013-12-28 15:48:00,77.6,71.7,30.04,ENE,78,7.0,11.0,82,0.00,,,0.00,93,Wunderground v.1.15,2013-12-28 20:48:00,
2013-12-28 15:54:00,77.4,71.5,30.04,ESE,109,7.0,8.0,82,0.00,,,0.00,74,Wunderground v.1.15,2013-12-28 20:54:00,
2013-12-28 16:00:00,77.4,71.5,30.05,SSW,194,6.0,6.0,82,0.00,,,0.00,60,Wunderground v.1.15,2013-12-28 21:00:00,
2013-12-28 16:06:00,77.4,71.5,30.05,ESE,114,6.0,6.0,82,0.00,,,0.00,53,Wunderground v.1.15,2013-12-28 21:06:00,
2013-12-28 16:12:00,77.4,71.1,30.05,ESE,106,5.0,5.0,81,0.00,,,0.00,53,Wunderground v.1.15,2013-12-28 21:12:00,
2013-12-28 16:18:00,77.5,71.2,30.05,ENE,66,6.0,9.0,81,0.00,,,0.00,46,Wunderground v.1.15,2013-12-28 21:18:00,
2013-12-28 16:24:00,77.5,71.2,30.05,ESE,113,6.0,8.0,81,0.00,,,0.00,49,Wunderground v.1.15,2013-12-28 21:24:00,
2013-12-28 16:30:00,77.5,71.2,30.05,East,86,6.0,10.0,81,0.00,,,0.00,39,Wunderground v.1.15,2013-12-28 21:30:00,
2013-12-28 16:36:00,77.5,71.6,30.05,ESE,117,6.0,11.0,82,0.00,,,0.00,32,Wunderground v.1.15,2013-12-28 21:36:00,
2013-12-28 16:42:00,77.4,71.5,30.05,East,94,5.0,16.0,82,0.00,,,0.00,33,Wunderground v.1.15,2013-12-28 21:42:00,
2013-12-28 16:48:00,77.4,71.5,30.05,ENE,74,6.0,16.0,82,0.00,,,0.00,23,Wunderground v.1.15,2013-12-28 21:48:00,
2013-12-28 16:54:00,77.4,71.1,30.05,ESE,106,6.0,8.0,81,0.00,,,0.00,21,Wunderground v.1.15,2013-12-28 21:54:00,
2013-12-28 17:00:00,77.4,71.1,30.05,ESE,123,6.0,9.0,81,0.00,,,0.00,18,Wunderground v.1.15,2013-12-28 22:00:00,
2013-12-28 17:06:00,77.4,71.1,30.05,ESE,118,6.0,10.0,81,0.00,,,0.00,9,Wunderground v.1.15,2013-12-28 22:06:00,
2013-12-28 17:12:00,77.4,71.1,30.05,ENE,69,6.0,6.0,81,0.00,,,0.00,12,Wunderground v.1.15,2013-12-28 22:12:00,
2013-12-28 17:18:00,77.4,71.1,30.05,SE,138,5.0,12.0,81,0.00,,,0.00,12,Wunderground v.1.15,2013-12-28 22:18:00,
2013-12-28 17:24:00,77.3,70.3,30.05,ESE,111,7.0,11.0,79,0.00,,,0.00,9,Wunderground v.1.15,2013-12-28 22:24:00,
2013-12-28 17:30:00,77.5,70.8,30.05,SE,126,8.0,8.0,80,0.00,,,0.00,5,Wunderground v.1.15,2013-12-28 22:30:00,
2013-12-28 17:36:00,77.5,70.8,30.05,SE,146,7.0,10.0,80,0.00,,,0.00,0,Wunderground v.1.15,2013-12-28 22:36:00,
2013-12-28 17:42:00,77.5,70.8,30.05,SE,140,8.0,10.0,80,0.00,,,0.00,0,Wunderground v.1.15,2013-12-28 22:42:00,
2013-12-28 17:48:00,77.5,71.2,30.05,SE,133,8.0,10.0,81,0.00,,,0.00,0,Wunderground v.1.15,2013-12-28 22:48:00,
2013-12-28 17:54:00,77.5,71.2,30.05,ESE,118,6.0,11.0,81,0.00,,,0.00,0,Wunderground v.1.15,2013-12-28 22:54:00,
2013-12-28 18:00:00,77.5,71.6,30.05,ESE,119,7.0,10.0,82,0.00,,,0.00,0,Wunderground v.1.15,2013-12-28 23:00:00,
2013-12-28 18:06:00,77.4,71.1,30.05,SE,126,7.0,12.0,81,0.00,,,0.00,0,Wunderground v.1.15,2013-12-28 23:06:00,
2013-12-28 18:12:00,77.4,71.1,30.05,ESE,103,6.0,13.0,81,0.00,,,0.00,0,Wunderground v.1.15,2013-12-28 23:12:00,
2013-12-28 18:18:00,77.5,71.2,30.05,East,94,6.0,13.0,81,0.00,,,0.00,0,Wunderground v.1.15,2013-12-28 23:18:00,
2013-12-28 18:24:00,77.4,71.1,30.05,ESE,102,7.0,9.0,81,0.00,,,0.00,0,Wunderground v.1.15,2013-12-28 23:24:00,
2013-12-28 18:30:00,77.5,71.2,30.05,ESE,107,7.0,7.0,81,0.00,,,0.00,0,Wunderground v.1.15,2013-12-28 23:30:00,
2013-12-28 18:36:00,77.6,71.7,30.06,ENE,77,6.0,8.0,82,0.00,,,0.00,0,Wunderground v.1.15,2013-12-28 23:36:00,
2013-12-28 18:42:00,77.6,71.7,30.06,East,98,7.0,15.0,82,0.00,,,0.00,0,Wunderground v.1.15,2013-12-28 23:42:00,
2013-12-28 18:48:00,77.6,71.7,30.06,ESE,117,8.0,15.0,82,0.00,,,0.00,0,Wunderground v.1.15,2013-12-28 23:48:00,
2013-12-28 18:54:00,77.6,71.3,30.06,SE,126,7.0,9.0,81,0.00,,,0.00,0,Wunderground v.1.15,2013-12-28 23:54:00,
2013-12-28 19:00:00,77.6,71.3,30.06,ESE,109,6.0,6.0,81,0.00,,,0.00,0,Wunderground v.1.15,2013-12-29 00:00:00,
2013-12-28 19:06:00,77.6,71.7,30.07,ENE,66,7.0,10.0,82,0.00,,,0.00,0,Wunderground v.1.15,2013-12-29 00:06:00,
2013-12-28 19:12:00,77.7,71.4,30.07,ESE,117,7.0,10.0,81,0.00,,,0.00,0,Wunderground v.1.15,2013-12-29 00:12:00,
2013-12-28 19:18:00,77.6,71.3,30.06,East,85,9.0,11.0,81,0.00,,,0.00,0,Wunderground v.1.15,2013-12-29 00:18:00,
2013-12-28 19:24:00,77.7,71.4,30.07,SE,126,7.0,8.0,81,0.00,,,0.00,0,Wunderground v.1.15,2013-12-29 00:24:00,
2013-12-28 19:30:00,77.6,71.3,30.07,ESE,107,6.0,6.0,81,0.00,,,0.00,0,Wunderground v.1.15,2013-12-29 00:30:00,
2013-12-28 19:36:00,77.6,71.7,30.07,SE,133,5.0,9.0,82,0.00,,,0.00,0,Wunderground v.1.15,2013-12-29 00:36:00,
2013-12-28 19:42:00,77.6,71.7,30.07,East,84,6.0,6.0,82,0.00,,,0.00,0,Wunderground v.1.15,2013-12-29 00:42:00,
2013-12-28 19:48:00,77.5,71.6,30.07,SE,133,5.0,11.0,82,0.00,,,0.00,0,Wunderground v.1.15,2013-12-29 00:48:00,
2013-12-28 19:54:00,77.5,71.6,30.08,ESE,120,5.0,5.0,82,0.00,,,0.00,0,Wunderground v.1.15,2013-12-29 00:54:00,
2013-12-28 20:00:00,77.6,71.7,30.07,SE,128,7.0,7.0,82,0.00,,,0.00,0,Wunderground v.1.15,2013-12-29 01:00:00,
2013-12-28 20:06:00,77.6,71.7,30.07,ESE,120,7.0,10.0,82,0.00,,,0.00,0,Wunderground v.1.15,2013-12-29 01:06:00,
2013-12-28 20:12:00,77.6,71.7,30.07,SE,126,7.0,14.0,82,0.00,,,0.00,0,Wunderground v.1.15,2013-12-29 01:12:00,
2013-12-28 20:18:00,77.7,71.8,30.07,East,82,7.0,14.0,82,0.00,,,0.00,0,Wunderground v.1.15,2013-12-29 01:18:00,
2013-12-28 20:24:00,77.7,71.8,30.08,ENE,76,7.0,8.0,82,0.00,,,0.00,0,Wunderground v.1.15,2013-12-29 01:24:00,
2013-12-28 20:30:00,77.6,71.7,30.08,ESE,104,6.0,10.0,82,0.00,,,0.00,0,Wunderground v.1.15,2013-12-29 01:30:00,
2013-12-28 20:36:00,77.7,71.8,30.08,East,83,7.0,10.0,82,0.00,,,0.00,0,Wunderground v.1.15,2013-12-29 01:36:00,
2013-12-28 20:42:00,77.6,71.7,30.08,SE,128,8.0,9.0,82,0.00,,,0.00,0,Wunderground v.1.15,2013-12-29 01:42:00,
2013-12-28 20:48:00,77.6,71.7,30.08,ESE,114,8.0,13.0,82,0.00,,,0.00,0,Wunderground v.1.15,2013-12-29 01:48:00,
2013-12-28 20:54:00,77.6,72.0,30.08,East,99,6.0,8.0,83,0.00,,,0.00,0,Wunderground v.1.15,2013-12-29 01:54:00,
2013-12-28 21:00:00,77.5,71.9,30.08,ESE,110,7.0,12.0,83,0.00,,,0.00,0,Wunderground v.1.15,2013-12-29 02:00:00,
2013-12-28 21:06:00,77.4,71.8,30.07,SE,130,8.0,14.0,83,0.00,,,0.00,0,Wunderground v.1.15,2013-12-29 02:06:00,
2013-12-28 21:12:00,77.4,71.5,30.07,ESE,119,7.0,8.0,82,0.00,,,0.00,0,Wunderground v.1.15,2013-12-29 02:12:00,
2013-12-28 21:18:00,77.5,71.9,30.07,SE,136,7.0,13.0,83,0.00,,,0.00,0,Wunderground v.1.15,2013-12-29 02:18:00,
2013-12-28 21:24:00,77.4,71.8,30.07,East,96,7.0,8.0,83,0.00,,,0.00,0,Wunderground v.1.15,2013-12-29 02:24:00,
2013-12-28 21:30:00,77.3,71.7,30.06,East,86,7.0,9.0,83,0.00,,,0.00,0,Wunderground v.1.15,2013-12-29 02:30:00,
2013-12-28 21:36:00,77.4,71.8,30.06,ESE,118,8.0,16.0,83,0.00,,,0.00,0,Wunderground v.1.15,2013-12-29 02:36:00,
2013-12-28 21:42:00,77.4,71.8,30.06,ESE,103,9.0,11.0,83,0.00,,,0.00,0,Wunderground v.1.15,2013-12-29 02:42:00,
2013-12-28 21:48:00,77.4,72.2,30.06,SE,143,7.0,14.0,84,0.00,,,0.00,0,Wunderground v.1.15,2013-12-29 02:48:00,
2013-12-28 21:54:00,77.2,72.3,30.05,ESE,109,7.0,7.0,85,0.00,,,0.00,0,Wunderground v.1.15,2013-12-29 02:54:00,
2013-12-28 22:00:00,77.0,72.1,30.05,ESE,115,7.0,10.0,85,0.00,,,0.00,0,Wunderground v.1.15,2013-12-29 03:00:00,
2013-12-28 22:06:00,76.9,72.0,30.05,ESE,123,7.0,10.0,85,0.00,,,0.00,0,Wunderground v.1.15,2013-12-29 03:06:00,
2013-12-28 22:12:00,76.8,71.9,30.05,SE,133,6.0,7.0,85,0.00,,,0.00,0,Wunderground v.1.15,2013-12-29 03:12:00,
2013-12-28 22:18:00,76.8,72.3,30.05,East,94,6.0,10.0,86,0.00,,,0.00,0,Wunderground v.1.15,2013-12-29 03:18:00,
2013-12-28 22:24:00,76.8,72.3,30.05,ESE,105,7.0,10.0,86,0.00,,,0.00,0,Wunderground v.1.15,2013-12-29 03:24:00,
2013-12-28 22:30:00,76.7,72.5,30.04,SSE,148,8.0,8.0,87,0.00,,,0.01,0,Wunderground v.1.15,2013-12-29 03:30:00,
2013-12-28 22:36:00,76.4,72.6,30.04,ESE,116,7.0,8.0,88,0.00,,,0.01,0,Wunderground v.1.15,2013-12-29 03:36:00,
2013-12-28 22:42:00,76.3,72.5,30.04,East,98,8.0,10.0,88,0.00,,,0.01,0,Wunderground v.1.15,2013-12-29 03:42:00,
2013-12-28 22:48:00,76.2,72.0,30.03,ESE,105,9.0,10.0,87,0.00,,,0.01,0,Wunderground v.1.15,2013-12-29 03:48:00,
2013-12-28 22:54:00,76.0,72.2,30.03,SSE,155,8.0,10.0,88,0.00,,,0.01,0,Wunderground v.1.15,2013-12-29 03:54:00,
2013-12-28 23:00:00,76.1,72.3,30.04,SE,131,8.0,8.0,88,0.00,,,0.01,0,Wunderground v.1.15,2013-12-29 04:00:00,
2013-12-28 23:06:00,76.0,71.8,30.05,East,94,7.0,8.0,87,0.00,,,0.01,0,Wunderground v.1.15,2013-12-29 04:06:00,
2013-12-28 23:12:00,75.9,71.8,30.05,ESE,120,7.0,9.0,87,0.00,,,0.01,0,Wunderground v.1.15,2013-12-29 04:12:00,
2013-12-28 23:18:00,76.2,72.0,30.05,ESE,111,8.0,14.0,87,0.00,,,0.01,0,Wunderground v.1.15,2013-12-29 04:18:00,
2013-12-28 23:24:00,76.3,72.5,30.04,SE,139,7.0,10.0,88,0.00,,,0.01,0,Wunderground v.1.15,2013-12-29 04:24:00,
2013-12-28 23:30:00,76.3,72.1,30.04,SE,146,8.0,8.0,87,0.00,,,0.01,0,Wunderground v.1.15,2013-12-29 04:30:00,
2013-12-28 23:36:00,76.4,72.2,30.04,ESE,106,8.0,9.0,87,0.00,,,0.01,0,Wunderground v.1.15,2013-12-29 04:36:00,
2013-12-28 23:42:00,76.4,71.9,30.04,SE,132,8.0,11.0,86,0.00,,,0.01,0,Wunderground v.1.15,2013-12-29 04:42:00,
2013-12-28 23:48:00,76.4,71.9,30.04,ESE,104,7.0,11.0,86,0.00,,,0.01,0,Wunderground v.1.15,2013-12-29 04:48:00,
2013-12-28 23:54:00,76.5,72.3,30.03,ESE,122,7.0,9.0,87,0.00,,,0.01,0,Wunderground v.1.15,2013-12-29 04:54:00,